This is the latest recevied weather packets stored in our database for station/object KF0FSA. If no packets are shown the sender has not sent any weather packets the latest 10 day(s).
| Time | Temp. | Humidity | Pressure | Rain* | Wind** | Luminosity | Snow |
|---|---|---|---|---|---|---|---|
| 1777552962 | 3.33° C | 86% | 965.4 hPa | 0 mm | - | 161 W/m² | - |
| 1777552662 | 3.33° C | 87% | 965.4 hPa | 0 mm | - | 147 W/m² | - |
| 1777552362 | 2.78° C | 88% | 965.4 hPa | 0 mm | - | 139 W/m² | - |
| 1777552061 | 2.78° C | 89% | 965.4 hPa | 0 mm | - | 98 W/m² | - |
| 1777551762 | 2.78° C | 89% | 965.4 hPa | 0 mm | - | 59 W/m² | - |
| 1777551459 | 2.78° C | 90% | 965.5 hPa | 0 mm | - | 44 W/m² | - |
| 1777551158 | 2.78° C | 90% | 965.5 hPa | 0 mm | - | 41 W/m² | - |
| 1777550859 | 2.22° C | 90% | 965.6 hPa | 0 mm | - | 39 W/m² | - |
| 1777550684 | 2.78° C | 90% | 965.6 hPa | 0 mm | - | 31 W/m² | - |
| 1777550256 | 2.78° C | 90% | 965.5 hPa | 0 mm | - | 26 W/m² | - |
| 1777549956 | 2.78° C | 90% | 965.4 hPa | 0 mm | - | 19 W/m² | - |
| 1777549656 | 2.78° C | 90% | 965.4 hPa | 0 mm | - | 17 W/m² | - |
| 1777549356 | 2.22° C | 90% | 965.4 hPa | 0 mm | - | 11 W/m² | - |
| 1777549057 | 2.22° C | 90% | 965.5 hPa | 0 mm | - | 6 W/m² | - |
| 1777548757 | 2.22° C | 91% | 965.3 hPa | 0 mm | - | 5 W/m² | - |
| 1777548456 | 2.22° C | 91% | 965.3 hPa | 0.25 mm | - | 4 W/m² | - |
| 1777548156 | 2.22° C | 90% | 965.2 hPa | 0.25 mm | - | 3 W/m² | - |
| 1777547857 | 2.22° C | 91% | 965.2 hPa | 0.51 mm | - | 0 W/m² | - |
| 1777547681 | 2.22° C | 91% | 965.2 hPa | 0.51 mm | - | 0 W/m² | - |
| 1777547258 | 2.22° C | 91% | 965.3 hPa | 0.51 mm | - | 0 W/m² | - |
| 1777546957 | 2.22° C | 90% | 965.4 hPa | 0.51 mm | - | 0 W/m² | - |
| 1777546654 | 2.22° C | 90% | 965.5 hPa | 0.51 mm | - | 0 W/m² | - |
| 1777546354 | 2.22° C | 90% | 965.5 hPa | 0.51 mm | - | 0 W/m² | - |
| 1777546179 | 2.22° C | 91% | 965.6 hPa | 0.25 mm | - | 0 W/m² | - |
| 1777545754 | 2.22° C | 91% | 965.7 hPa | 0.25 mm | - | 0 W/m² | - |
* Rain latest hour (hover to see other rain measurements)
** Current wind speed in m/s (hover to see current wind gust speed)